Theta_e
349 355 355 358 374 364 350 348 346 348 348 345 344 347 349 351 357 359 344 346 346 346 347 346 342 344 347 344 345 344 349 346 346 344 349 352 353 355 355 355 355 355 355 353 353 354 353 353 353
357 356 359 370 368 356 350 347 349 347 347 347 346 348 351 354 348 346 346 346 347 346 347 347 342 342 345 344 344 344 349 345 344 343 353 352 350 349 355 353 352 353 351 350 352 353 353 353 353
355 357 369 367 352 349 351 347 347 345 346 349 351 350 352 351 346 346 345 346 347 347 349 347 343 342 345 345 345 346 342 345 345 349 354 354 351 351 355 355 353 347 346 346 354 354 353 352 347
358 360 365 362 349 350 349 348 347 347 346 347 350 356 350 346 347 345 345 345 346 348 349 347 347 346 345 342 342 340 339 342 352 352 352 353 354 354 354 352 347 347 347 354 355 354 353 352 346
358 363 363 351 350 348 347 347 346 348 348 347 349 355 354 348 347 346 346 346 346 349 348 350 345 343 345 341 340 340 342 343 349 351 348 353 352 354 349 346 348 348 349 350 352 355 353 350 344
367 367 364 356 355 350 348 347 345 346 348 348 350 356 354 348 347 347 347 348 347 345 348 349 346 342 341 341 340 340 340 344 350 347 354 354 350 353 343 342 344 346 347 349 348 350 348 348 345
365 369 363 358 357 353 349 347 346 346 347 348 346 354 352 348 347 347 347 348 347 346 345 349 349 346 342 342 342 342 342 348 346 354 351 353 350 344 335 336 342 345 346 346 346 344 344 345 342
362 360 362 358 360 354 349 345 344 346 349 344 346 351 353 347 347 346 346 346 346 345 345 348 349 349 347 346 345 347 347 347 351 349 346 345 337 347 345 337 342 345 344 344 344 344 346 347 345
354 370 366 361 356 352 348 348 345 344 346 345 345 345 346 345 345 346 346 346 347 345 344 346 349 351 351 349 348 345 346 346 346 347 350 351 349 351 353 346 343 343 343 344 347 348 348 349 349
359 369 364 361 354 352 350 349 346 346 347 348 348 346 345 345 345 345 346 346 345 345 344 345 347 350 352 348 350 350 349 352 352 352 353 352 353 351 347 345 342 343 347 347 349 350 349 349 354
357 365 361 359 356 354 352 351 347 349 348 347 350 348 345 345 345 345 344 345 345 345 345 346 348 348 350 350 349 348 349 351 354 355 354 350 346 349 347 344 349 348 348 351 350 349 349 348 348
362 357 358 357 356 356 355 352 348 350 346 346 348 346 346 346 345 344 343 344 345 345 345 346 347 347 349 348 349 348 348 348 349 353 352 350 350 349 346 346 346 349 347 352 349 349 350 349 348
359 358 357 356 357 358 357 356 354 352 346 345 346 346 345 344 343 342 341 344 345 345 346 346 347 347 347 347 349 349 349 348 352 350 351 348 348 349 347 347 345 347 348 349 350 350 351 351 347
358 359 359 360 359 360 361 361 359 353 347 346 346 346 344 344 343 342 341 343 345 345 346 347 347 348 348 349 349 350 349 351 348 348 349 351 349 348 349 349 345 347 349 350 351 354 350 350 348
357 362 360 361 360 358 357 363 362 354 350 349 348 348 348 347 344 343 343 343 344 345 346 347 347 347 349 349 349 349 348 348 347 346 351 351 352 352 350 348 347 346 350 353 351 352 349 348 347
355 360 361 360 360 356 361 367 358 354 353 352 350 349 349 349 346 343 342 342 344 345 346 347 346 347 348 348 349 348 348 347 345 345 349 351 352 351 353 348 346 349 349 348 348 348 349 349 348
349 356 356 359 354 350 360 362 357 355 355 354 352 350 348 348 347 342 341 342 343 344 346 347 347 347 348 350 349 349 349 348 345 345 347 351 351 352 353 347 350 347 347 347 348 350 350 350 349
347 350 348 340 343 342 349 352 355 355 355 356 353 350 348 348 348 343 341 341 342 343 346 347 348 347 349 349 349 348 347 347 346 345 346 353 349 351 354 348 351 351 346 346 353 352 352 351 351
344 344 346 338 334 333 339 341 351 354 355 356 355 353 350 348 346 345 343 346 343 342 344 347 349 348 349 349 348 347 347 347 347 346 347 351 350 350 353 349 350 348 346 352 354 356 356 349 350
340 344 342 340 332 329 340 340 345 353 354 355 355 354 353 348 347 346 345 346 346 343 345 349 351 351 350 349 348 349 349 348 347 347 348 350 351 350 350 351 348 347 345 350 354 356 354 350 353
337 338 338 336 334 335 341 344 345 351 354 353 354 354 353 352 348 347 347 347 346 347 347 349 352 354 353 350 351 352 351 350 350 349 349 351 352 350 350 352 351 348 349 350 352 354 356 352 350
327 327 327 328 332 336 340 345 348 354 354 354 353 354 354 353 351 348 347 347 346 347 349 350 352 354 355 353 352 353 351 351 352 350 349 350 352 351 351 353 352 351 349 345 355 352 356 355 349
324 324 324 324 325 329 332 338 341 342 346 353 352 352 352 353 352 351 348 347 347 346 347 350 353 355 355 355 354 353 353 350 350 350 351 350 352 352 349 352 352 352 350 350 352 357 357 356 352
322 322 323 324 324 324 325 330 338 343 342 346 347 349 349 349 350 351 350 348 348 347 347 347 353 356 356 356 356 356 355 354 349 349 350 352 351 352 350 349 353 353 351 349 357 354 356 356 356
323 323 324 324 325 325 326 327 330 342 341 338 339 341 342 343 346 348 350 350 349 348 347 347 352 358 356 356 357 356 356 356 357 353 350 350 350 350 350 352 355 354 354 354 353 355 355 357 356
323 323 324 327 327 328 331 329 331 337 335 336 336 336 338 339 341 345 348 348 348 348 348 347 350 357 357 356 357 358 357 356 356 355 351 350 349 348 348 350 353 355 354 354 357 354 357 354 355
324 324 324 324 324 323 326 328 332 334 333 333 333 333 335 337 337 339 342 346 350 348 348 349 348 356 357 357 358 358 359 357 354 354 352 353 349 348 349 354 354 354 353 354 356 354 355 356 355
320 322 324 322 323 325 325 326 326 332 333 330 330 330 330 331 335 336 338 340 341 350 351 348 349 352 354 356 358 359 360 360 358 356 358 354 352 349 350 349 351 354 353 353 355 351 355 356 356
323 322 320 320 322 325 327 328 332 334 331 328 326 326 326 329 333 336 337 338 340 345 354 348 348 350 352 357 357 358 359 359 360 357 357 358 354 354 349 355 354 355 354 354 355 356 354 356 356
322 320 322 326 327 325 323 324 327 328 326 324 323 322 323 328 331 334 336 339 341 343 355 349 346 350 353 355 358 359 358 359 358 359 356 357 357 356 358 355 360 360 359 358 357 357 353 355 354
Wind_Speed
5 3 5 6 5 4 13 14 15 12 12 14 6 16 18 21 4 11 22 21 19 21 16 14 13 12 12 11 12 13 14 14 14 16 16 15 17 17 18 18 18 18 18 17 17 16 16 16 16
8 5 7 5 4 14 8 13 14 14 15 12 11 10 16 20 16 19 19 20 17 19 18 15 14 13 11 11 15 17 16 15 15 16 15 16 16 17 18 17 17 18 18 17 18 17 17 13 12
5 7 5 3 6 11 13 15 14 13 10 9 7 15 12 12 15 16 24 20 16 19 18 15 15 14 12 16 23 22 21 17 16 14 14 16 15 17 17 16 17 19 17 16 16 15 15 15 14
6 6 6 2 11 16 15 13 12 11 7 3 15 16 10 17 10 22 21 19 17 19 17 14 15 15 19 24 23 22 21 19 15 14 14 15 15 15 15 15 16 16 15 16 15 13 13 14 15
10 2 3 14 16 14 12 10 9 10 9 6 3 16 15 4 22 22 20 18 18 20 16 15 16 17 19 21 21 21 19 18 15 14 14 14 13 13 12 13 14 14 15 16 16 14 13 14 16
5 4 1 10 13 12 8 10 9 11 11 9 16 18 9 15 22 21 18 19 20 19 17 16 16 18 18 18 18 17 16 15 13 14 12 12 12 10 11 12 12 13 14 14 15 14 13 14 15
11 4 6 12 13 9 11 7 9 10 9 12 10 17 12 19 21 21 18 18 19 18 18 17 15 16 17 15 15 17 18 9 12 12 12 13 10 9 9 11 11 12 12 12 13 13 12 14 16
5 2 2 9 5 11 8 10 9 10 14 8 13 9 17 22 21 20 17 17 14 16 15 17 16 15 16 15 16 16 14 12 11 11 11 11 14 15 14 12 12 10 11 11 12 11 9 11 16
9 5 3 7 7 10 8 11 11 13 10 7 5 18 21 25 22 21 18 17 15 14 13 16 16 16 17 15 14 13 12 11 11 11 9 10 11 10 10 10 10 10 10 12 13 11 5 4 12
8 3 10 10 6 10 4 11 11 10 11 9 10 21 25 23 21 21 19 18 17 16 14 17 16 18 15 15 13 12 10 11 9 7 4 7 9 10 11 8 10 9 6 9 9 9 9 4 7
4 5 10 8 8 4 7 10 2 8 8 11 14 20 22 21 19 18 18 19 18 16 13 15 17 14 21 13 14 11 9 10 8 7 2 8 8 6 10 7 5 3 6 1 4 11 13 10 10
3 7 7 6 3 8 4 1 8 11 8 14 17 19 19 18 16 17 15 16 17 15 14 14 15 13 17 14 10 10 11 9 9 11 6 6 7 3 6 6 6 2 7 3 9 11 9 8 9
6 11 7 4 3 12 4 1 7 9 11 16 18 18 17 16 16 16 15 14 16 15 14 14 14 10 12 11 9 6 8 9 10 7 6 5 7 6 5 7 4 4 1 6 6 7 7 3 8
11 9 10 5 4 4 3 4 3 10 14 16 16 16 15 15 16 16 15 15 15 17 15 16 14 13 11 9 9 8 8 7 6 7 8 7 5 6 6 6 5 4 2 6 6 3 4 5 5
2 13 12 3 3 3 7 8 7 14 14 15 15 14 14 13 15 16 16 15 16 16 17 17 16 15 13 10 11 10 10 9 8 8 7 8 5 8 5 6 4 3 2 1 1 5 1 3 3
6 10 2 7 8 3 9 1 6 13 14 14 14 13 13 13 15 15 17 16 16 17 17 17 16 17 14 13 12 11 9 9 9 9 9 9 7 7 6 6 5 3 3 1 1 3 3 5 4
10 7 8 10 7 0 5 3 10 13 13 13 13 13 13 13 14 16 18 18 18 17 18 16 16 17 16 14 13 10 8 9 10 10 10 11 9 9 9 7 5 4 2 1 3 2 2 3 4
4 10 10 5 6 3 5 4 10 12 13 13 14 14 13 13 15 18 19 19 18 18 18 18 18 16 16 15 12 13 12 11 11 11 11 11 11 11 8 8 2 5 4 4 4 4 4 5 4
7 7 2 6 3 7 6 4 11 13 14 13 14 14 14 14 17 20 20 18 18 20 20 20 19 18 18 17 16 15 15 14 14 13 11 10 12 13 12 11 9 7 5 1 1 6 7 6 4
9 10 8 6 8 5 11 10 10 17 14 14 14 15 15 16 16 19 21 21 20 21 21 21 20 20 20 18 16 14 16 15 14 14 14 13 14 13 14 14 9 8 9 7 4 3 8 5 4
12 11 12 6 8 13 14 15 10 10 16 12 14 15 15 16 16 17 21 22 22 23 23 23 22 21 21 19 17 14 12 11 11 15 15 16 16 15 15 14 11 6 10 11 10 6 3 11 4
13 11 4 10 12 10 3 3 9 14 14 16 13 15 15 15 15 16 19 22 23 24 24 23 23 23 22 21 19 18 17 17 20 18 17 17 18 17 17 14 13 10 10 12 7 8 5 2 9
11 8 8 12 13 14 14 8 7 6 10 16 16 17 14 16 16 16 21 24 25 25 26 26 26 25 24 24 21 21 20 18 17 17 16 17 19 19 19 18 16 14 14 11 11 6 3 5 6
11 13 14 14 13 12 15 13 12 10 9 16 13 6 12 11 13 15 19 23 25 26 27 28 29 28 28 27 26 21 22 21 19 19 18 18 20 20 21 20 19 16 16 16 10 12 9 10 10
11 14 9 9 10 11 13 13 11 16 18 14 12 13 12 9 4 13 15 18 24 26 28 29 31 31 30 30 28 28 24 23 18 18 20 20 21 22 24 24 21 19 18 15 17 15 12 12 10
8 10 8 7 6 6 9 5 1 19 15 13 12 10 9 11 12 11 12 19 23 25 29 31 30 33 32 32 31 30 29 26 25 21 20 22 22 22 22 31 25 23 20 20 17 16 15 16 15
2 7 9 9 14 9 10 7 7 14 13 7 10 7 8 9 10 12 12 12 17 22 30 32 32 34 35 35 33 32 32 31 28 26 28 21 23 20 20 26 23 24 23 21 20 19 17 15 13
10 10 8 8 8 12 9 9 9 19 15 7 5 7 9 9 9 11 12 13 15 23 22 34 36 34 35 35 35 35 33 33 30 27 25 27 22 25 18 25 23 24 25 25 23 22 20 20 18
7 10 10 14 11 12 10 2 13 13 10 4 5 12 12 12 12 12 14 18 20 24 33 32 35 36 35 35 34 34 35 34 32 30 28 25 27 22 27 21 24 24 25 25 25 24 23 18 22
11 14 15 11 11 11 12 13 14 11 4 7 9 11 14 13 13 14 15 19 22 28 30 16 28 34 34 34 33 34 33 33 33 33 31 30 28 28 24 26 22 24 25 26 25 24 24 24 23
Wind_Direction
194 230 262 269 254 177 89 84 82 121 90 84 73 65 68 44 52 92 141 119 132 119 122 116 108 110 114 124 142 133 126 118 102 97 92 89 86 91 92 89 87 84 83 77 74 75 76 78 77
264 266 239 279 252 91 86 97 73 65 99 95 100 109 73 54 93 122 121 128 125 124 121 116 110 101 106 120 134 131 125 112 106 99 90 89 96 95 92 86 84 82 80 80 75 73 72 77 76
267 271 272 282 30 74 80 78 89 94 121 95 90 47 47 105 112 114 124 130 123 114 114 116 109 101 99 116 121 119 117 110 107 98 96 93 95 93 93 87 82 80 80 76 74 75 75 71 70
270 211 211 13 77 73 86 89 111 114 89 73 116 96 92 110 100 122 131 130 125 117 112 120 112 102 98 112 115 117 118 116 100 97 97 96 92 89 91 87 86 82 78 73 71 73 73 67 63
262 356 274 96 86 73 71 59 51 70 93 120 40 104 95 80 113 132 134 133 124 118 121 121 117 112 110 110 112 114 116 115 102 101 100 96 98 96 93 90 88 86 75 70 66 73 71 63 60
259 13 124 90 86 97 84 67 93 88 88 111 98 113 102 133 135 139 141 141 132 125 119 118 118 119 119 117 115 107 126 106 109 106 102 98 97 91 93 95 91 85 79 70 66 67 66 65 60
291 274 79 117 112 65 79 355 84 92 115 104 131 106 129 148 141 140 146 142 132 127 124 128 122 128 128 123 120 117 136 125 116 111 109 107 99 87 94 102 96 91 80 70 65 60 63 66 65
271 254 108 91 111 101 91 81 57 75 65 113 132 128 158 139 145 141 144 126 133 133 135 127 132 132 134 128 127 123 133 132 121 114 112 106 93 85 84 92 102 94 77 64 54 49 59 76 71
260 349 123 82 83 117 133 100 76 99 121 103 55 137 139 149 147 148 144 143 146 138 143 137 138 138 136 136 138 131 133 129 121 109 111 137 113 111 104 124 106 89 71 59 54 56 55 100 92
262 271 90 62 79 104 96 83 120 126 127 118 106 110 138 152 157 152 156 151 156 154 158 149 150 141 152 142 146 146 156 146 145 121 145 117 68 84 116 112 92 77 58 54 41 32 32 295 179
27 81 69 101 89 130 106 91 85 165 107 125 136 142 151 158 166 158 166 160 159 152 162 148 136 159 143 147 155 157 165 142 132 130 93 104 119 149 139 137 128 110 24 101 41 38 49 50 58
323 84 125 128 115 128 95 123 98 53 61 108 134 150 157 166 169 166 168 163 153 155 162 157 144 157 132 143 175 163 165 153 156 144 128 152 140 113 147 119 121 206 75 51 35 60 48 56 69
80 107 117 133 121 71 42 209 70 94 105 121 135 155 164 171 169 167 167 165 159 162 162 153 145 166 146 159 153 162 147 171 125 138 161 176 134 127 150 141 144 75 60 78 46 51 42 358 80
72 129 105 123 96 108 146 233 228 125 131 133 148 157 167 171 174 167 175 170 171 167 168 150 162 165 163 192 153 176 177 151 152 161 161 158 153 159 141 152 145 122 34 52 40 35 22 5 59
246 122 132 171 174 187 212 249 183 147 148 148 162 167 168 171 175 174 178 175 183 174 172 158 169 172 168 183 175 190 171 168 175 171 155 167 163 166 158 144 163 152 99 247 103 330 223 53 74
208 89 105 133 202 198 95 6 113 154 163 162 172 174 176 175 177 179 179 181 180 177 174 170 182 172 177 179 183 186 177 185 183 183 176 175 173 166 191 163 165 128 234 190 6 21 352 47 2
191 118 84 130 207 107 248 142 143 164 182 171 177 179 184 179 182 177 181 187 179 184 175 181 184 177 179 179 187 196 182 210 192 190 186 177 182 185 197 191 154 199 214 259 303 354 53 35 329
345 133 123 93 94 206 215 257 160 173 192 181 185 183 187 187 186 177 183 186 184 185 180 182 182 185 182 185 196 195 194 203 204 200 199 164 191 189 204 192 160 212 231 219 26 347 17 283 3
323 313 80 123 158 292 5 255 176 185 203 187 187 186 192 196 181 178 188 183 182 183 184 185 185 183 185 190 194 199 204 201 206 206 202 182 198 198 203 217 187 222 241 326 113 260 216 301 359
287 283 271 129 161 242 286 291 185 164 202 197 190 185 194 194 187 185 187 188 189 183 186 187 188 185 189 194 200 200 204 207 210 207 195 208 204 202 205 222 207 214 207 194 228 295 308 267 100
266 272 300 329 329 270 243 260 188 176 179 193 198 196 194 196 193 188 187 194 195 188 190 191 192 191 194 201 199 196 209 235 217 207 202 208 207 206 208 207 233 228 241 204 196 224 275 299 359
277 25 334 288 278 278 196 283 213 169 185 182 204 191 197 198 196 186 194 197 202 200 194 196 195 196 199 201 197 200 204 205 207 216 208 205 205 206 205 210 215 234 228 247 202 235 254 264 292
284 11 292 285 278 270 259 249 281 163 205 187 196 182 195 187 198 201 192 198 207 204 202 200 198 199 202 201 211 195 214 209 208 210 203 203 198 208 208 209 214 218 229 243 236 280 184 269 263
310 280 263 249 253 256 247 256 254 205 176 88 82 149 162 186 197 205 208 201 204 211 207 204 196 201 202 201 210 210 203 225 211 202 200 200 209 208 210 210 211 216 222 235 232 238 244 252 285
246 261 261 232 215 244 237 216 230 53 85 87 84 61 39 1 324 201 203 215 206 211 214 211 195 199 205 206 206 210 214 220 234 194 214 208 208 207 206 208 208 215 219 230 226 228 241 236 247
311 315 301 313 286 350 87 228 282 99 98 99 89 80 46 21 23 1 338 202 213 216 218 219 204 195 204 209 210 207 210 212 220 213 213 215 217 212 209 201 208 216 220 221 232 235 234 238 238
82 249 4 301 271 264 273 140 151 118 103 96 93 75 41 17 13 10 355 349 331 223 218 221 218 199 201 209 208 208 207 211 213 221 215 218 222 222 202 191 204 215 219 222 222 233 239 248 248
267 345 267 213 274 270 252 226 223 176 135 101 65 38 15 4 360 357 345 354 334 301 261 216 220 211 206 213 209 209 208 210 216 216 219 217 220 225 213 198 208 214 217 219 225 235 235 228 238
188 221 226 278 293 296 278 22 55 97 101 90 12 15 351 349 350 348 340 343 334 325 308 222 214 218 207 211 214 210 210 209 211 218 218 221 221 215 228 204 203 212 217 221 225 232 245 248 233
278 282 284 275 239 246 269 273 130 117 117 42 6 351 343 343 344 347 342 341 343 335 324 260 213 214 211 206 215 212 212 213 212 214 217 215 219 223 214 221 221 216 218 220 224 227 236 232 244